GW6443 Weather Reports


Display with metric or nautical units.
time (UTC)temp
F
wind
direction
speed
MPH
gust
MPH
rain 1hr
in
rain 24hr
in
rain mn
in
humidity
%
barometer
mb
20260509101320 48 152 1.0 1.0 0.02 0.00 0.00 91 1009.2
20260509100818 48 111 1.0 2.0 0.00 0.00 0.00 91 1009.3
20260509100315 48 50 0.0 1.0 0.00 0.00 0.00 91 1009.4
20260509095811 48 133 2.0 2.0 0.00 0.00 0.00 90 1009.4
20260509095309 48 89 0.0 2.0 0.00 0.00 0.00 90 1009.3
20260509094806 48 38 0.0 1.0 0.00 0.00 0.00 90 1009.3
20260509094302 48 106 2.0 2.0 0.00 0.00 0.00 90 1009.3
20260509093800 48 115 1.0 2.0 0.00 0.00 0.00 89 1009.3
20260509093257 48 46 0.0 1.0 0.00 0.00 0.00 89 1009.2
20260509092755 48 136 1.0 2.0 0.00 0.00 0.00 89 1009.3
20260509092253 48 132 1.0 1.0 0.00 0.00 0.00 89 1009.0
20260509091751 48 156 1.0 2.0 0.00 0.00 0.00 89 1009.0
20260509091247 48 106 2.0 2.0 0.00 0.00 0.00 89 1009.0
20260509090745 48 100 2.0 2.0 0.00 0.00 0.00 88 1009.0
20260509090241 48 147 1.0 2.0 0.00 0.00 0.00 89 1009.2
20260509085739 48 91 2.0 3.0 0.00 0.00 0.00 88 1009.1
20260509085237 48 82 2.0 3.0 0.00 0.00 0.00 88 1009.2
20260509084733 48 157 1.0 2.0 0.00 0.00 0.00 88 1009.1
20260509084229 48 107 2.0 2.0 0.00 0.00 0.00 88 1009.2
20260509083728 48 69 2.0 2.0 0.00 0.00 0.00 88 1008.9
20260509083224 48 0 1.0 2.0 0.00 0.00 0.00 88 1009.2
20260509082720 48 113 1.0 2.0 0.00 0.00 0.00 87 1009.1
20260509082217 48 113 2.0 2.0 0.00 0.00 0.00 88 1008.9
20260509081714 48 114 2.0 2.0 0.00 0.00 0.00 89 1009.0
20260509081212 48 126 0.0 2.0 0.00 0.00 0.00 89 1008.8
20260509080710 48 141 0.0 2.0 0.00 0.00 0.00 89 1008.9
20260509080207 48 159 0.0 1.0 0.00 0.00 0.00 89 1008.9
20260509075705 48 131 1.0 2.0 0.00 0.00 0.00 88 1008.9
20260509075203 48 130 2.0 2.0 0.00 0.00 0.00 89 1008.8
20260509074659 48 99 1.0 2.0 0.00 0.00 0.00 88 1008.8
20260509074156 48 136 1.0 2.0 0.00 0.00 0.00 87 1009.0
20260509073653 48 117 0.0 2.0 0.00 0.00 0.00 87 1009.1
20260509073149 48 139 1.0 2.0 0.00 0.00 0.00 87 1009.0
20260509072646 48 106 0.0 1.0 0.00 0.00 0.00 87 1009.2
20260509072143 48 145 0.0 2.0 0.00 0.00 0.00 87 1009.1
20260509071639 48 299 0.0 1.0 0.00 0.00 0.00 87 1009.0
20260509071137 48 127 2.0 2.0 0.00 0.00 0.00 86 1009.0
20260509070634 48 242 0.0 2.0 0.00 0.00 0.00 87 1009.0
20260509070130 48 137 2.0 2.0 0.00 0.00 0.00 87 1009.3
20260509065626 48 130 1.0 1.0 0.00 0.00 0.00 87 1009.4
20260509065122 48 137 1.0 2.0 0.00 0.00 0.00 87 1009.3
20260509064620 49 119 1.0 2.0 0.00 0.00 0.00 86 1009.3
20260509064118 49 152 1.0 2.0 0.00 0.00 0.00 86 1009.6
20260509063614 49 84 1.0 2.0 0.00 0.00 0.00 86 1009.5
20260509063110 49 59 2.0 3.0 0.00 0.00 0.00 85 1009.7
20260509062608 49 96 2.0 2.0 0.00 0.00 0.00 84 1009.8
20260509062105 49 127 2.0 3.0 0.00 0.00 0.00 84 1009.8
20260509061601 49 122 2.0 2.0 0.00 0.00 0.00 86 1009.7
20260509061059 49 165 0.0 2.0 0.00 0.00 0.00 86 1009.8
20260509060557 49 228 0.0 2.0 0.00 0.00 0.00 87 1010.0
20260509060052 49 113 0.0 1.0 0.00 0.00 0.00 87 1010.1
20260509055548 49 130 0.0 2.0 0.00 0.00 0.00 87 1010.1
20260509055044 49 219 0.0 2.0 0.00 0.00 0.00 86 1010.2
20260509054541 49 262 0.0 3.0 0.00 0.00 0.00 87 1010.2
20260509054038 49 229 1.0 2.0 0.00 0.00 0.00 87 1010.3
20260509053537 49 139 1.0 2.0 0.00 0.00 0.00 87 1010.3
20260509053033 49 129 1.0 2.0 0.00 0.00 0.00 86 1010.4
20260509052531 49 235 0.0 1.0 0.00 0.00 0.00 86 1010.5
20260509052029 49 55 0.0 0.0 0.00 0.00 0.00 86 1010.3
20260509051527 49 233 0.0 0.0 0.00 0.00 0.00 85 1010.5
20260509051024 49 135 0.0 1.0 0.00 0.00 0.00 85 1010.7
20260509050520 49 224 0.0 0.0 0.00 0.00 0.00 87 1010.5
20260509050017 49 149 1.0 2.0 0.00 0.00 0.00 87 1010.7
20260509045514 49 176 1.0 2.0 0.00 0.00 0.00 87 1010.8
20260509045011 50 165 1.0 2.0 0.00 0.00 0.00 86 1010.7
20260509044509 50 156 1.0 2.0 0.00 0.00 0.00 85 1010.7
20260509044006 50 100 1.0 2.0 0.00 0.00 0.00 84 1010.6
20260509043502 50 84 1.0 2.0 0.00 0.00 0.00 83 1011.0
20260509042957 50 106 1.0 2.0 0.00 0.00 0.00 83 1011.0
20260509042454 50 109 2.0 2.0 0.00 0.00 0.00 83 1011.2
20260509041950 50 128 1.0 2.0 0.00 0.00 0.00 81 1011.1
20260509041447 50 113 2.0 2.0 0.00 0.00 0.00 81 1011.4
20260509040945 51 104 2.0 2.0 0.00 0.00 0.00 79 1011.3
20260509040443 51 160 0.0 2.0 0.00 0.00 0.00 78 1011.3
20260509035939 51 80 2.0 3.0 0.00 0.00 0.00 79 1011.0
20260509035436 51 92 2.0 3.0 0.00 0.00 0.00 79 1010.8
20260509034933 51 100 3.0 3.0 0.00 0.00 0.00 81 1010.8
20260509034431 51 110 2.0 3.0 0.00 0.00 0.00 81 1010.7
20260509033928 51 70 2.0 2.0 0.00 0.00 0.00 82 1011.0
20260509033425 51 158 0.0 2.0 0.00 0.00 0.00 81 1011.0
20260509032921 51 170 0.0 2.0 0.00 0.00 0.00 78 1011.1
20260509032419 51 235 2.0 2.0 0.00 0.00 0.00 76 1011.0
20260509031917 51 58 1.0 3.0 0.00 0.00 0.00 77 1011.1
20260509031414 51 84 2.0 4.0 0.00 0.00 0.00 78 1011.1
20260509030911 51 352 0.0 2.0 0.00 0.00 0.00 78 1011.0
20260509030409 51 77 0.0 1.0 0.00 0.00 0.00 78 1011.0
20260509025906 51 63 0.0 1.0 0.00 0.00 0.00 77 1011.0
20260509025401 51 336 0.0 2.0 0.00 0.00 0.00 76 1011.1
20260509024857 51 138 1.0 2.0 0.00 0.00 0.00 78 1010.7
20260509024353 51 171 1.0 2.0 0.00 0.00 0.00 79 1010.7
20260509023850 51 247 1.0 2.0 0.00 0.00 0.00 79 1011.0
20260509023348 51 72 0.0 2.0 0.00 0.00 0.00 78 1010.6
20260509022844 51 144 0.0 1.0 0.00 0.00 0.00 78 1010.6
20260509022341 51 110 2.0 3.0 0.00 0.00 0.00 77 1010.8
20260509021838 51 142 2.0 3.0 0.00 0.00 0.00 79 1010.8
20260509021335 51 158 0.0 1.0 0.00 0.00 0.00 78 1010.5
20260509020833 51 143 1.0 2.0 0.00 0.00 0.00 77 1010.5
20260509020331 52 240 0.0 0.0 0.00 0.00 0.00 76 1010.6
20260509015828 52 112 2.0 4.0 0.00 0.00 0.00 73 1010.4
20260509015326 52 106 3.0 4.0 0.00 0.00 0.00 74 1010.5
20260509014822 52 109 5.0 5.0 0.00 0.00 0.00 74 1010.5
20260509014320 52 143 1.0 3.0 0.00 0.00 0.00 74 1010.8
20260509013816 52 169 1.0 2.0 0.00 0.00 0.00 74 1010.8
20260509013312 52 130 0.0 1.0 0.00 0.00 0.00 73 1010.7
20260509012809 52 113 1.0 2.0 0.00 0.00 0.00 73 1010.7
20260509012307 52 100 1.0 2.0 0.00 0.00 0.00 72 1010.6
20260509011803 52 131 3.0 3.0 0.00 0.00 0.00 71 1010.7
20260509011300 52 320 0.0 3.0 0.00 0.00 0.00 71 1010.8
20260509010758 52 6 0.0 2.0 0.00 0.00 0.00 72 1011.0
20260509010254 52 91 0.0 2.0 0.00 0.00 0.00 73 1010.6
20260509005752 52 269 0.0 2.0 0.00 0.00 0.00 73 1010.6
20260509005250 51 253 0.0 2.0 0.00 0.00 0.00 72 1010.6
20260509004749 51 127 2.0 2.0 0.00 0.00 0.00 73 1010.5
20260509004246 51 131 1.0 2.0 0.00 0.00 0.00 72 1010.3
20260509003744 51 286 0.0 1.0 0.00 0.00 0.00 70 1010.3
20260509003242 51 213 1.0 2.0 0.00 0.00 0.00 71 1010.2
20260509002739 52 120 0.0 2.0 0.00 0.00 0.00 70 1010.4
20260509002236 53 131 2.0 2.0 0.00 0.00 0.00 67 1010.4
20260509001734 53 120 1.0 2.0 0.00 0.00 0.00 67 1010.0
20260509001230 54 105 2.0 2.0 0.00 0.00 0.00 68 1010.3
20260509000728 55 116 2.0 2.0 0.00 0.00 0.00 66 1010.2
20260509000226 55 163 1.0 2.0 0.00 0.00 0.00 64 1010.1
20260508235721 55 110 2.0 2.0 0.00 0.00 0.00 60 1010.1
20260508235218 55 89 0.0 2.0 0.00 0.00 0.00 59 1010.2
20260508234716 56 107 2.0 3.0 0.00 0.00 0.00 59 1010.2
20260508234212 56 155 2.0 2.0 0.00 0.00 0.00 59 1010.3
20260508233711 56 148 1.0 2.0 0.00 0.00 0.00 57 1010.2
20260508233209 56 174 2.0 4.0 0.00 0.00 0.00 57 1010.2
20260508232706 56 325 3.0 4.0 0.00 0.00 0.00 57 1010.2
20260508232202 57 115 0.0 2.0 0.00 0.00 0.00 57 1010.1
20260508231701 57 176 2.0 4.0 0.00 0.00 0.00 55 1010.1
20260508231157 57 97 2.0 4.0 0.00 0.00 0.00 56 1010.3
20260508230654 57 143 1.0 2.0 0.00 0.00 0.00 57 1010.3
20260508230150 58 114 1.0 2.0 0.00 0.00 0.00 56 1010.0
20260508225648 58 137 3.0 4.0 0.00 0.00 0.00 55 1010.1
20260508225144 58 136 3.0 4.0 0.00 0.00 0.00 54 1010.1
20260508224642 58 180 0.0 4.0 0.00 0.00 0.00 55 1010.1
20260508224139 58 60 1.0 4.0 0.00 0.00 0.00 56 1010.2
20260508223637 57 37 2.0 6.0 0.00 0.00 0.00 54 1010.1
20260508223134 58 235 4.0 4.0 0.00 0.00 0.00 55 1010.2
20260508222631 57 115 3.0 6.0 0.00 0.00 0.00 55 1010.0
20260508222128 57 258 4.0 5.0 0.00 0.00 0.00 55 1010.0
20260508221624 58 281 3.0 4.0 0.00 0.00 0.00 55 1010.0
20260508221120 58 276 5.0 10.0 0.00 0.00 0.00 54 1010.1
20260508220617 58 125 0.0 4.0 0.00 0.00 0.00 55 1009.9
20260508220114 58 287 2.0 5.0 0.00 0.00 0.00 55 1010.0
20260508215610 58 91 6.0 6.0 0.00 0.00 0.00 55 1009.9
20260508215107 57 20 2.0 9.0 0.00 0.00 0.00 56 1010.0
20260508214604 57 199 4.0 7.0 0.00 0.00 0.00 55 1010.1
20260508214101 58 222 2.0 9.0 0.00 0.00 0.00 54 1010.2
20260508213558 58 272 5.0 9.0 0.00 0.00 0.00 54 1010.2
20260508213054 58 314 2.0 12.0 0.00 0.00 0.00 54 1010.0
20260508212551 59 211 11.0 13.0 0.00 0.00 0.00 52 1010.3
20260508212047 59 254 5.0 12.0 0.00 0.00 0.00 52 1010.1
20260508211542 59 186 5.0 11.0 0.00 0.00 0.00 52 1010.1
20260508211039 59 260 8.0 13.0 0.00 0.00 0.00 52 1009.9
20260508210536 59 223 12.0 13.0 0.00 0.00 0.00 51 1010.1
20260508210033 59 224 7.0 15.0 0.00 0.00 0.00 52 1010.0
20260508205530 59 210 3.0 8.0 0.00 0.00 0.00 53 1010.0
20260508205026 59 241 6.0 8.0 0.00 0.00 0.00 53 1009.9
20260508204523 59 150 2.0 12.0 0.00 0.00 0.00 52 1010.0
20260508204019 59 268 9.0 16.0 0.00 0.00 0.00 51 1010.1
20260508203515 60 197 8.0 15.0 0.00 0.00 0.00 50 1010.1
20260508203011 61 139 0.0 8.0 0.00 0.00 0.00 49 1009.9
20260508202508 60 250 5.0 7.0 0.00 0.00 0.00 49 1010.1
20260508202005 61 217 3.0 12.0 0.00 0.00 0.00 49 1009.9
20260508201502 61 286 4.0 5.0 0.00 0.00 0.00 52 1010.0
20260508200959 60 163 11.0 12.0 0.00 0.00 0.00 49 1010.4
20260508200456 60 278 6.0 12.0 0.00 0.00 0.00 50 1010.1
20260508195950 59 292 10.0 15.0 0.00 0.00 0.00 52 1010.2
20260508195448 59 213 2.0 7.0 0.00 0.00 0.00 53 1010.2
20260508194944 59 158 2.0 7.0 0.00 0.00 0.00 53 1010.3
20260508194441 59 256 4.0 7.0 0.00 0.00 0.00 54 1010.5
20260508193938 59 286 2.0 4.0 0.00 0.00 0.00 52 1010.4
20260508193435 59 190 2.0 9.0 0.00 0.00 0.00 52 1010.5
20260508192931 60 251 5.0 10.0 0.00 0.00 0.00 50 1010.2
20260508192428 61 201 4.0 7.0 0.00 0.00 0.00 46 1010.2
20260508191925 62 206 5.0 8.0 0.00 0.00 0.00 44 1010.0
20260508191423 62 181 4.0 9.0 0.00 0.00 0.00 45 1009.9
20260508190919 62 304 3.0 6.0 0.00 0.00 0.00 44 1010.3
20260508190416 62 265 4.0 5.0 0.00 0.00 0.00 46 1010.2
20260508185912 61 106 3.0 10.0 0.00 0.00 0.00 45 1010.2
20260508185410 61 131 6.0 11.0 0.00 0.00 0.00 45 1010.3
20260508184907 61 211 6.0 14.0 0.00 0.00 0.00 44 1010.3
20260508184405 61 180 3.0 6.0 0.00 0.00 0.00 43 1010.3
20260508183901 61 197 5.0 14.0 0.00 0.00 0.00 42 1010.1
20260508183358 61 201 0.0 8.0 0.00 0.00 0.00 45 1010.0
20260508182853 60 129 0.0 5.0 0.00 0.00 0.00 46 1010.3
20260508182351 60 203 5.0 11.0 0.00 0.00 0.00 43 1010.2
20260508181846 61 169 3.0 5.0 0.00 0.00 0.00 42 1010.3
20260508181343 62 173 2.0 6.0 0.00 0.00 0.00 41 1010.1
20260508180840 62 37 4.0 13.0 0.00 0.00 0.00 40 1010.1
20260508180337 63 354 2.0 4.0 0.00 0.00 0.00 41 1010.2
20260508175833 64 73 7.0 7.0 0.00 0.00 0.00 39 1010.0
20260508175329 63 138 2.0 7.0 0.00 0.00 0.00 46 1010.3
20260508174828 62 286 3.0 7.0 0.00 0.00 0.00 39 1010.5
20260508174325 62 342 4.0 8.0 0.00 0.00 0.00 39 1010.7
20260508173821 62 219 5.0 10.0 0.00 0.00 0.00 38 1010.5
20260508173319 63 165 2.0 13.0 0.00 0.00 0.00 38 1010.7
20260508172814 64 220 6.0 12.0 0.00 0.00 0.00 37 1010.8
20260508172311 62 183 2.0 7.0 0.00 0.00 0.00 38 1010.5
20260508171808 62 259 6.0 8.0 0.00 0.00 0.00 40 1010.6
20260508171304 62 242 2.0 11.0 0.00 0.00 0.00 41 1010.6
20260508170801 62 231 4.0 11.0 0.00 0.00 0.00 41 1011.0
20260508170259 62 354 15.0 17.0 0.00 0.00 0.00 40 1010.5
20260508165755 61 125 1.0 10.0 0.00 0.00 0.00 42 1011.0
20260508165253 62 129 2.0 12.0 0.00 0.00 0.00 40 1011.1
20260508164748 62 138 3.0 4.0 0.00 0.00 0.00 41 1011.1
20260508164245 62 281 6.0 13.0 0.00 0.00 0.00 40 1011.2
20260508163744 62 174 5.0 9.0 0.00 0.00 0.00 44 1011.1
20260508163241 62 273 13.0 15.0 0.00 0.00 0.00 42 1011.3
20260508162737 62 223 5.0 10.0 0.00 0.00 0.00 43 1011.4
20260508162234 61 184 2.0 8.0 0.00 0.00 0.00 46 1011.3
20260508161731 60 170 2.0 6.0 0.00 0.00 0.00 44 1011.2
20260508161228 60 209 4.0 17.0 0.00 0.00 0.00 44 1011.5
20260508160726 60 180 4.0 13.0 0.00 0.00 0.00 44 1011.3
20260508160224 60 276 6.0 10.0 0.00 0.00 0.00 43 1011.4
20260508155720 60 39 2.0 16.0 0.00 0.00 0.00 46 1011.5
20260508155217 60 191 4.0 6.0 0.00 0.00 0.00 45 1011.5
20260508154714 59 276 8.0 16.0 0.00 0.00 0.00 43 1011.5
20260508154211 59 226 2.0 9.0 0.00 0.00 0.00 45 1011.5
20260508153708 59 274 10.0 12.0 0.00 0.00 0.00 44 1011.6
20260508153205 59 357 4.0 15.0 0.00 0.00 0.00 44 1011.6
20260508152702 59 311 3.0 6.0 0.00 0.00 0.00 43 1011.5
20260508152157 58 273 7.0 8.0 0.00 0.00 0.00 45 1011.7
20260508151654 58 171 6.0 20.0 0.00 0.00 0.00 43 1011.7
20260508151151 58 175 4.0 10.0 0.00 0.00 0.00 44 1011.5
20260508150648 59 328 3.0 13.0 0.00 0.00 0.00 43 1011.7
20260508150144 58 264 4.0 13.0 0.00 0.00 0.00 46 1011.7
20260508145640 58 155 5.0 9.0 0.00 0.00 0.00 44 1011.8
20260508145136 57 184 3.0 13.0 0.00 0.00 0.00 43 1011.9
20260508144634 57 107 7.0 11.0 0.00 0.00 0.00 45 1011.9
20260508144132 57 313 2.0 6.0 0.00 0.00 0.00 45 1011.9
20260508143629 57 223 2.0 7.0 0.00 0.00 0.00 52 1011.8
20260508143126 55 186 7.0 7.0 0.00 0.00 0.00 48 1011.8
20260508142622 55 245 7.0 13.0 0.00 0.00 0.00 47 1011.7
20260508142119 55 196 6.0 11.0 0.00 0.00 0.00 47 1012.1
20260508141616 55 276 3.0 6.0 0.00 0.00 0.00 49 1011.9
20260508141113 55 169 4.0 7.0 0.00 0.00 0.00 48 1011.9
20260508140610 55 212 6.0 6.0 0.00 0.00 0.00 49 1012.1
20260508140107 55 64 6.0 13.0 0.00 0.00 0.00 49 1011.9
20260508135602 55 285 2.0 7.0 0.00 0.00 0.00 47 1011.9
20260508135059 55 213 3.0 10.0 0.00 0.00 0.00 51 1012.0
20260508134556 55 204 4.0 10.0 0.00 0.00 0.00 48 1011.9
20260508134053 55 187 4.0 13.0 0.00 0.00 0.00 49 1011.8
20260508133549 55 97 8.0 15.0 0.00 0.00 0.00 49 1011.9
20260508133047 55 93 5.0 5.0 0.00 0.00 0.00 50 1011.9
20260508132545 53 215 3.0 8.0 0.00 0.00 0.00 53 1011.9
20260508132041 52 86 3.0 8.0 0.00 0.00 0.00 57 1011.7
20260508131536 51 103 9.0 11.0 0.00 0.00 0.00 58 1012.2
20260508131033 50 125 5.0 6.0 0.00 0.00 0.00 62 1011.8
20260508130531 50 117 4.0 9.0 0.00 0.00 0.00 63 1011.9
20260508130027 49 127 7.0 9.0 0.00 0.00 0.00 63 1011.9
20260508125522 48 118 9.0 12.0 0.00 0.00 0.00 63 1011.9
20260508125021 48 115 6.0 9.0 0.00 0.00 0.00 63 1012.0
20260508124518 47 122 7.0 10.0 0.00 0.00 0.00 64 1011.9
20260508124015 46 115 5.0 6.0 0.00 0.00 0.00 65 1012.2
20260508123514 46 120 4.0 6.0 0.00 0.00 0.00 68 1012.0
20260508123010 45 59 4.0 5.0 0.00 0.00 0.00 67 1012.0
20260508122507 44 123 4.0 7.0 0.00 0.00 0.00 68 1012.2
20260508122004 44 110 6.0 9.0 0.00 0.00 0.00 69 1012.2
20260508121502 43 111 4.0 9.0 0.00 0.00 0.00 71 1012.2
20260508120959 43 122 4.0 5.0 0.00 0.00 0.00 70 1012.4
20260508120457 43 94 3.0 3.0 0.00 0.00 0.00 73 1012.2
20260508115955 43 112 2.0 4.0 0.00 0.00 0.00 73 1012.3
20260508115452 42 107 0.0 1.0 0.00 0.00 0.00 76 1012.3
20260508114949 42 105 1.0 2.0 0.00 0.00 0.00 76 1012.3
20260508114446 42 50 2.0 3.0 0.00 0.00 0.00 74 1012.4
20260508113942 41 102 0.0 2.0 0.00 0.00 0.00 75 1012.5
20260508113440 41 89 0.0 1.0 0.00 0.00 0.00 76 1012.3
20260508112937 41 72 0.0 1.0 0.00 0.00 0.00 75 1012.4
20260508112433 41 222 0.0 1.0 0.00 0.00 0.00 78 1012.3
20260508111930 40 72 2.0 2.0 0.00 0.00 0.00 81 1012.1
20260508111427 40 12 0.0 2.0 0.00 0.00 0.00 81 1012.1
20260508110924 40 76 1.0 2.0 0.00 0.00 0.00 83 1012.0
20260508110422 39 94 2.0 2.0 0.00 0.00 0.00 82 1012.1
20260508105921 39 60 0.0 2.0 0.00 0.00 0.00 82 1011.9
20260508105418 39 102 2.0 2.0 0.00 0.00 0.00 82 1012.0
20260508104915 39 135 2.0 2.0 0.00 0.00 0.00 81 1012.0
20260508104413 39 104 2.0 2.0 0.00 0.00 0.00 80 1012.0
20260508103909 39 69 2.0 4.0 0.00 0.00 0.00 81 1011.9
20260508103407 39 112 2.0 3.0 0.00 0.00 0.00 80 1011.9
20260508102904 38 107 2.0 2.0 0.00 0.00 0.00 81 1011.8
20260508102402 38 89 0.0 3.0 0.00 0.00 0.00 81 1012.0
20260508101859 37 48 0.0 2.0 0.00 0.00 0.00 81 1012.0